SQ4IXR-4 Weather Reports


time (UTC)temp
C
wind
direction
speed
KPH
gust
KPH
rain 1hr
cm
rain 24hr
cm
rain mn
cm
humidity
%
barometer
mb
20260506202241 16 0.0 0.0 0.00 0.00 0.00 78 1009.9
20260506200856 17 0.0 0.0 0.00 0.00 0.00 74 1009.7
20260506195508 17 0.0 0.0 0.00 0.00 0.00 69 1009.8
20260506194126 17 0.0 0.0 0.00 0.00 0.00 66 1010.0
20260506192742 18 0.0 0.0 0.00 0.00 0.00 64 1009.8
20260506191359 18 0.0 0.0 0.00 0.00 0.00 62 1009.8
20260506190019 18 0.0 0.0 0.00 0.00 0.00 61 1009.8
20260506184634 18 0.0 0.0 0.00 0.00 0.00 59 1009.5
20260506183251 19 0.0 0.0 0.00 0.00 0.00 57 1009.3
20260506181906 20 0.0 0.0 0.00 0.00 0.00 55 1009.1
20260506180521 20 0.0 0.0 0.00 0.00 0.00 51 1008.8
20260506175138 21 0.0 0.0 0.00 0.00 0.00 48 1008.6
20260506173755 22 0.0 0.0 0.00 0.00 0.00 45 1008.4
20260506172411 22 0.0 0.0 0.00 0.00 0.00 44 1008.3
20260506171032 22 0.0 0.0 0.00 0.00 0.00 42 1008.2
20260506165646 23 0.0 0.0 0.00 0.00 0.00 41 1008.0
20260506164302 23 0.0 0.0 0.00 0.00 0.00 38 1007.8
20260506162919 24 0.0 0.0 0.00 0.00 0.00 37 1007.8
20260506161536 24 0.0 0.0 0.00 0.00 0.00 35 1007.7
20260506160155 25 0.0 0.0 0.00 0.00 0.00 34 1007.5
20260506154813 26 0.0 0.0 0.00 0.00 0.00 32 1007.4
20260506153432 27 0.0 0.0 0.00 0.00 0.00 30 1007.2
20260506152045 26 0.0 0.0 0.00 0.00 0.00 31 1007.3
20260506150702 26 0.0 0.0 0.00 0.00 0.00 30 1007.2
20260506145321 27 0.0 0.0 0.00 0.00 0.00 29 1007.0
20260506143936 27 0.0 0.0 0.00 0.00 0.00 28 1007.0
20260506142554 27 0.0 0.0 0.00 0.00 0.00 26 1006.9
20260506141212 28 0.0 0.0 0.00 0.00 0.00 24 1006.5
20260506135828 29 0.0 0.0 0.00 0.00 0.00 23 1006.6
20260506134442 28 0.0 0.0 0.00 0.00 0.00 23 1006.4
20260506133058 28 0.0 0.0 0.00 0.00 0.00 24 1006.5
20260506131711 27 0.0 0.0 0.00 0.00 0.00 24 1006.7
20260506130329 28 0.0 0.0 0.00 0.00 0.00 23 1006.8
20260506124945 29 0.0 0.0 0.00 0.00 0.00 22 1006.9
20260506123557 28 0.0 0.0 0.00 0.00 0.00 23 1006.9
20260506122220 30 0.0 0.0 0.00 0.00 0.00 20 1006.8
20260506120841 31 0.0 0.0 0.00 0.00 0.00 22 1006.7
20260506115441 33 0.0 0.0 0.00 0.00 0.00 20 1006.7
20260506114055 32 0.0 0.0 0.00 0.00 0.00 22 1007.0
20260506112712 28 0.0 0.0 0.00 0.00 0.00 26 1007.5
20260506111334 30 0.0 0.0 0.00 0.00 0.00 24 1007.7
20260506105944 29 0.0 0.0 0.00 0.00 0.00 25 1007.9
20260506104558 28 0.0 0.0 0.00 0.00 0.00 27 1008.2
20260506103213 28 0.0 0.0 0.00 0.00 0.00 31 1008.1
20260506101829 28 0.0 0.0 0.00 0.00 0.00 32 1008.4
20260506100455 33 0.0 0.0 0.00 0.00 0.00 25 1008.3
20260506095106 29 0.0 0.0 0.00 0.00 0.00 31 1008.6
20260506093721 28 0.0 0.0 0.00 0.00 0.00 33 1008.9
20260506092349 30 0.0 0.0 0.00 0.00 0.00 30 1008.8
20260506091007 32 0.0 0.0 0.00 0.00 0.00 26 1008.8
20260506085638 45 0.0 0.0 0.00 0.00 0.00 14 1008.2
20260506084300 46 0.0 0.0 0.00 0.00 0.00 14 1008.4
20260506082912 44 0.0 0.0 0.00 0.00 0.00 15 1008.3
20260506081521 41 0.0 0.0 0.00 0.00 0.00 18 1008.7
20260506080148 43 0.0 0.0 0.00 0.00 0.00 16 1008.5
20260506073329 28 0.0 0.0 0.00 0.00 0.00 35 1009.4
20260506071945 24 0.0 0.0 0.00 0.00 0.00 43 1009.9
20260506070624 32 0.0 0.0 0.00 0.00 0.00 27 1009.5
20260506062436 18 0.0 0.0 0.00 0.00 0.00 69 1010.6
20260506061051 18 0.0 0.0 0.00 0.00 0.00 70 1010.7
20260506050208 14 0.0 0.0 0.00 0.00 0.00 89 1011.0
20260506044826 13 0.0 0.0 0.00 0.00 0.00 91 1011.3
20260506043443 13 0.0 0.0 0.00 0.00 0.00 93 1011.2
20260506042059 13 0.0 0.0 0.00 0.00 0.00 97 1011.3
20260506040714 12 0.0 0.0 0.00 0.00 0.00 10 1011.5
20260506035328 12 0.0 0.0 0.00 0.00 0.00 10 1011.4
20260506033945 12 0.0 0.0 0.00 0.00 0.00 10 1011.5
20260506032600 11 0.0 0.0 0.00 0.00 0.00 10 1011.6
20260506031217 11 0.0 0.0 0.00 0.00 0.00 10 1011.7
20260506025833 11 0.0 0.0 0.00 0.00 0.00 10 1011.5
20260506024450 11 0.0 0.0 0.00 0.00 0.00 10 1011.4
20260506023106 11 0.0 0.0 0.00 0.00 0.00 10 1011.2
20260506021724 11 0.0 0.0 0.00 0.00 0.00 10 1011.4
20260506020341 11 0.0 0.0 0.00 0.00 0.00 10 1011.4
20260506014958 11 0.0 0.0 0.00 0.00 0.00 10 1011.4
20260506013615 11 0.0 0.0 0.00 0.00 0.00 10 1011.3
20260506012230 12 0.0 0.0 0.00 0.00 0.00 10 1011.2
20260506010847 12 0.0 0.0 0.00 0.00 0.00 10 1011.2
20260506004122 12 0.0 0.0 0.00 0.00 0.00 10 1011.1
20260506002737 12 0.0 0.0 0.00 0.00 0.00 10 1011.1
20260506001354 12 0.0 0.0 0.00 0.00 0.00 10 1011.1
20260506000012 13 0.0 0.0 0.00 0.00 0.00 10 1011.0
20260505234626 13 0.0 0.0 0.00 0.00 0.00 10 1011.0
20260505233244 13 0.0 0.0 0.00 0.00 0.00 10 1010.9
20260505231900 13 0.0 0.0 0.00 0.00 0.00 10 1010.9
20260505230517 13 0.0 0.0 0.00 0.00 0.00 10 1010.9
20260505225134 13 0.0 0.0 0.00 0.00 0.00 10 1011.1
20260505223750 13 0.0 0.0 0.00 0.00 0.00 10 1011.2
20260505222408 13 0.0 0.0 0.00 0.00 0.00 10 1011.3
20260505221025 13 0.0 0.0 0.00 0.00 0.00 10 1011.5
20260505215642 13 0.0 0.0 0.00 0.00 0.00 10 1011.7
20260505214259 14 0.0 0.0 0.00 0.00 0.00 10 1011.5
20260505212916 14 0.0 0.0 0.00 0.00 0.00 10 1011.6
20260505211532 14 0.0 0.0 0.00 0.00 0.00 10 1011.5
20260505210149 15 0.0 0.0 0.00 0.00 0.00 10 1011.4
20260505204805 15 0.0 0.0 0.00 0.00 0.00 10 1011.4
20260505203423 15 0.0 0.0 0.00 0.00 0.00 10 1011.4